Location: Beneden-Haastrecht
(52.0012°N, 4.7557°E)
Time: 04:38:37
(UTC+00:00)

NOSS 3-4 (C) - Pass Details

Date: 24 October 2020
Orbit: 886 x 1326 km, 63.4° (Epoch: 06 November)

Event Time Altitude Azimuth Distance (km) Brightness Sun altitude
Rises 17:53:26 0° 305° (NW) 3,677 7.4 -13.8°
Reaches altitude 10° 17:56:06 10° 313° (NW) 2,784 6.6 -14.3°
Maximum altitude 18:02:15 40° 22° (NNE) 1,555 4.4 -15.2°
Enters shadow 18:06:24 22° 78° (ENE) 2,275 4.8 -15.8°
